Weather History for KOTH - March, 2015

Change the Weather History Date:

Thursday, March 26, 2015

  Actual Average Record
Temperature  
Mean Temperature 55 °F 48 °F  
Max Temperature 61 °F 54 °F 83 °F (1923)
Min Temperature 48 °F 42 °F 29 °F (1922)
Degree Days  
Heating Degree Days 10 17  
Month to date heating degree days 344 451  
Since 1 July heating degree days 2448 3625  
Cooling Degree Days 0 0  
Month to date cooling degree days 0 0  
Year to date cooling degree days 0 0  
Growing Degree Days 4 (Base 50)    
Moisture  
Dew Point 52 °F    
Average Humidity 98    
Maximum Humidity 100    
Minimum Humidity 82    
Precipitation  
Precipitation 0.00 in 0.23 in 1.52 in (1962)
Month to date precipitation 4.72 6.68  
Year to date precipitation 14.93 24.46  
Sea Level Pressure  
Sea Level Pressure 30.22 in    
Wind  
Wind Speed 4 mph (NNW)    
Max Wind Speed 10 mph    
Max Gust Speed -    
Visibility 3 miles    
Events      
T = Trace of Precipitation, MM = Missing Value Source: NWS Daily Summary

Daily Weather History Graph

Daily Weather History Graph

Search for Another Location

Airport or City:

Trip Planner

Search our weather history database for the weather conditions in past years. The results will help you decide how hot, cold, wet, or windy it might be!

Date:

Astronomy

Mar. 26, 2015 Rise Set
Actual Time 7:09 AM PDT 7:36 PM PDT
Civil Twilight 6:41 AM PDT 8:05 PM PDT
Nautical Twilight 6:07 AM PDT 8:38 PM PDT
Astronomical Twilight 5:32 AM PDT 9:13 PM PDT
Moon 11:46 AM PDT (3/26) 1:50 AM PDT (3/26)
Length of Visible Light 13h 23m
Length of Day
12h 26m
Waxing Crescent, 45% of the Moon is Illuminated
Mar 26
Waxing Crescent
Mar 27
First Quarter
Apr 4
Full
Apr 11
Last Quarter
Apr 18
New

Hourly Weather History & Observations

Time (PDT) Temp. Dew Point Humidity Pressure Visibility Wind Dir Wind Speed Gust Speed Precip Events Conditions
12:15 AM 51.8 °F 50.0 °F 94% 30.31 in 9.0 mi SE 3.5 mph - N/A   Overcast
12:35 AM 51.8 °F 51.8 °F 100% 30.30 in 3.0 mi Calm Calm - N/A   Overcast
12:55 AM 51.8 °F 51.8 °F 100% 30.30 in 1.8 mi Calm Calm - N/A   Overcast
1:15 AM 51.8 °F 51.8 °F 100% 30.30 in 0.5 mi Calm Calm - N/A   Overcast
1:35 AM 51.8 °F 50.0 °F 94% 30.30 in 0.8 mi Calm Calm - N/A   Overcast
1:55 AM 51.8 °F 51.8 °F 100% 30.29 in 0.2 mi Calm Calm - N/A   Overcast
2:15 AM 51.8 °F 51.8 °F 100% 30.28 in 0.5 mi Calm Calm - N/A   Overcast
2:35 AM 51.8 °F 50.0 °F 94% 30.28 in 0.5 mi Calm Calm - N/A   Overcast
2:55 AM 50.0 °F 48.2 °F 94% 30.28 in 0.5 mi SE 3.5 mph - N/A   Overcast
3:15 AM 48.2 °F 48.2 °F 100% 30.27 in 0.8 mi Calm Calm - N/A   Overcast
3:35 AM 48.2 °F 48.2 °F 100% 30.27 in 0.2 mi Calm Calm - N/A   Overcast
3:55 AM 50.0 °F 50.0 °F 100% 30.26 in 0.2 mi Calm Calm - N/A   Overcast
4:15 AM 50.0 °F 50.0 °F 100% 30.26 in 0.2 mi Calm Calm - N/A   Overcast
4:35 AM 50.0 °F 50.0 °F 100% 30.26 in 0.2 mi Calm Calm - N/A   Overcast
4:55 AM 50.0 °F 50.0 °F 100% 30.26 in 0.5 mi Calm Calm - N/A   Overcast
5:15 AM 50.0 °F 50.0 °F 100% 30.26 in 0.5 mi Calm Calm - N/A   Overcast
5:35 AM 50.0 °F 50.0 °F 100% 30.25 in 0.2 mi Calm Calm - N/A   Overcast
5:55 AM 48.2 °F 48.2 °F 100% 30.25 in 0.5 mi Calm Calm - N/A   Overcast
6:15 AM 48.2 °F 48.2 °F 100% 30.25 in 0.5 mi Calm Calm - N/A   Overcast
6:35 AM 48.2 °F 48.2 °F 100% 30.25 in 0.5 mi Calm Calm - N/A   Overcast
6:55 AM 48.2 °F 48.2 °F 100% 30.25 in 0.8 mi Calm Calm - N/A   Overcast
7:15 AM 48.2 °F 48.2 °F 100% 30.25 in 0.2 mi Calm Calm - N/A   Overcast
7:35 AM 48.2 °F 48.2 °F 100% 30.25 in 0.5 mi ESE 3.5 mph - N/A   Overcast
7:55 AM 48.2 °F 48.2 °F 100% 30.26 in 0.2 mi SSE 3.5 mph - N/A   Overcast
8:15 AM 48.2 °F 48.2 °F 100% 30.25 in 0.5 mi SE 5.8 mph - N/A   Overcast
8:35 AM 48.2 °F 48.2 °F 100% 30.25 in 0.5 mi Calm Calm - N/A   Overcast
8:55 AM 50.0 °F 50.0 °F 100% 30.25 in 0.5 mi East 3.5 mph - N/A   Overcast
9:15 AM 50.0 °F 50.0 °F 100% 30.25 in 0.5 mi Calm Calm - N/A   Overcast
9:35 AM 50.0 °F 50.0 °F 100% 30.25 in 3.0 mi Calm Calm - N/A   Overcast
9:55 AM 51.8 °F 51.8 °F 100% 30.26 in 4.0 mi West 5.8 mph - N/A   Overcast
10:15 AM 50.0 °F 50.0 °F 100% 30.26 in 1.5 mi WNW 5.8 mph - N/A   Overcast
10:35 AM 51.8 °F 50.0 °F 94% 30.26 in 3.0 mi WNW 3.5 mph - N/A   Overcast
10:55 AM 51.8 °F 51.8 °F 100% 30.26 in 1.5 mi WNW 4.6 mph - N/A   Overcast
11:15 AM 51.8 °F 50.0 °F 94% 30.26 in 9.0 mi Calm Calm - N/A   Overcast
11:35 AM 51.8 °F 51.8 °F 100% 30.25 in 10.0 mi Calm Calm - N/A   Overcast
11:55 AM 51.8 °F 51.8 °F 100% 30.25 in 8.0 mi Calm Calm - N/A   Overcast
12:15 PM 53.6 °F 53.6 °F 100% 30.25 in 2.0 mi West 3.5 mph - N/A   Overcast
12:35 PM 53.6 °F 53.6 °F 100% 30.24 in 2.0 mi Calm Calm - N/A   Overcast
12:55 PM 55.4 °F 53.6 °F 94% 30.24 in 2.0 mi NW 10.4 mph - N/A   Overcast
1:15 PM 55.4 °F 53.6 °F 94% 30.23 in 10.0 mi North 8.1 mph - N/A   Overcast
1:55 PM 55.4 °F 53.6 °F 94% 30.23 in 10.0 mi NNW 8.1 mph - N/A   Overcast
2:15 PM 55.4 °F 55.4 °F 100% 30.22 in 7.0 mi North 9.2 mph - N/A   Overcast
2:35 PM 57.2 °F 55.4 °F 94% 30.21 in 10.0 mi NNW 5.8 mph - N/A   Overcast
2:55 PM 57.2 °F 55.4 °F 94% 30.21 in 10.0 mi NW 9.2 mph - N/A   Mostly Cloudy
3:15 PM 57.2 °F 55.4 °F 94% 30.20 in 10.0 mi North 6.9 mph - N/A   Scattered Clouds
3:35 PM 60.8 °F 55.4 °F 82% 30.19 in 10.0 mi NNW 5.8 mph - N/A   Clear
3:55 PM 59.0 °F 55.4 °F 88% 30.18 in 10.0 mi NW 6.9 mph - N/A   Clear
4:15 PM 60.8 °F 55.4 °F 82% 30.17 in 10.0 mi WNW 8.1 mph - N/A   Clear
4:35 PM 57.2 °F 55.4 °F 94% 30.16 in 10.0 mi NW 8.1 mph - N/A   Clear
4:55 PM 57.2 °F 55.4 °F 94% 30.16 in 10.0 mi NW 5.8 mph - N/A   Clear
5:15 PM 57.2 °F 55.4 °F 94% 30.16 in 10.0 mi NW 6.9 mph - N/A   Partly Cloudy
5:35 PM 55.4 °F 53.6 °F 94% 30.15 in 10.0 mi NW 6.9 mph - N/A   Scattered Clouds
5:55 PM 53.6 °F 51.8 °F 94% 30.15 in 10.0 mi NW 6.9 mph - N/A   Scattered Clouds
6:15 PM 53.6 °F 51.8 °F 94% 30.15 in 1.8 mi NNW 5.8 mph - N/A   Overcast
6:35 PM 53.6 °F 53.6 °F 100% 30.15 in 1.8 mi NNW 4.6 mph - N/A   Overcast
6:55 PM 53.6 °F 53.6 °F 100% 30.15 in 1.2 mi NNW 5.8 mph - N/A   Overcast
7:15 PM 53.6 °F 53.6 °F 100% 30.15 in 5.0 mi NNW 8.1 mph - N/A   Overcast
7:35 PM 53.6 °F 51.8 °F 94% 30.15 in 1.5 mi NNW 6.9 mph - N/A   Overcast
7:55 PM 53.6 °F 53.6 °F 100% 30.15 in 0.5 mi North 6.9 mph - N/A   Overcast
8:15 PM 51.8 °F 51.8 °F 100% 30.15 in 0.8 mi NNW 5.8 mph - N/A   Overcast
8:35 PM 51.8 °F 51.8 °F 100% 30.15 in 0.5 mi NNW 4.6 mph - N/A   Overcast
8:55 PM 53.6 °F 53.6 °F 100% 30.15 in 0.8 mi North 3.5 mph - N/A   Overcast
9:15 PM 53.6 °F 53.6 °F 100% 30.15 in 2.5 mi North 4.6 mph - N/A   Overcast
9:35 PM 51.8 °F 51.8 °F 100% 30.15 in 1.8 mi North 3.5 mph - N/A   Overcast
9:55 PM 51.8 °F 51.8 °F 100% 30.15 in 3.0 mi NNE 3.5 mph - N/A   Overcast
10:15 PM 51.8 °F 51.8 °F 100% 30.15 in 1.2 mi Calm Calm - N/A   Overcast
10:35 PM 51.8 °F 51.8 °F 100% 30.15 in 0.8 mi Calm Calm - N/A   Overcast
10:55 PM 51.8 °F 51.8 °F 100% 30.15 in 1.2 mi Calm Calm - N/A   Overcast
11:15 PM 51.8 °F 51.8 °F 100% 30.15 in 0.8 mi Calm Calm - N/A   Overcast
11:35 PM 51.8 °F 51.8 °F 100% 30.15 in 0.5 mi Calm Calm - N/A   Overcast
11:55 PM 51.8 °F 51.8 °F 100% 30.15 in 0.2 mi Calm Calm - N/A   Overcast